TimeCST,TemperatureF,Dew PointF,Humidity,Sea Level PressureIn,VisibilityMPH,Wind Direction,Wind SpeedMPH,Gust SpeedMPH,PrecipitationIn,Events,Conditions,WindDirDegrees,DateUTC
12:53 AM,7.0,-0.9,70,30.35,10.0,North,13.8,-,N/A,,Clear,360,2014-01-05 06:53:00
1:53 AM,7.0,-2.0,67,30.36,10.0,North,15.0,-,N/A,,Mostly Cloudy,360,2014-01-05 07:53:00
2:53 AM,7.0,-4.0,61,30.38,10.0,North,15.0,21.9,N/A,,Overcast,350,2014-01-05 08:53:00
3:53 AM,5.0,-5.1,63,30.40,10.0,North,18.4,-,N/A,,Overcast,350,2014-01-05 09:53:00
4:53 AM,3.9,-5.1,66,30.42,7.0,North,11.5,-,0.00,,Overcast,350,2014-01-05 10:53:00
5:53 AM,1.9,-7.1,66,30.44,10.0,North,13.8,-,0.00,,Mostly Cloudy,360,2014-01-05 11:53:00
6:53 AM,1.9,-8.0,63,30.46,10.0,North,8.1,-,N/A,,Mostly Cloudy,350,2014-01-05 12:53:00
7:53 AM,3.0,-9.0,57,30.48,10.0,North,11.5,-,N/A,,Overcast,360,2014-01-05 13:53:00
8:53 AM,3.0,-9.9,55,30.51,10.0,North,15.0,-,N/A,,Partly Cloudy,350,2014-01-05 14:53:00
9:53 AM,6.1,-7.1,55,30.52,10.0,NNW,16.1,-,N/A,,Clear,340,2014-01-05 15:53:00
10:53 AM,9.0,-6.0,51,30.53,10.0,North,18.4,-,N/A,,Clear,350,2014-01-05 16:53:00
11:53 AM,9.0,-7.1,48,30.52,10.0,North,24.2,31.1,N/A,,Scattered Clouds,360,2014-01-05 17:53:00
12:53 PM,9.0,-7.1,48,30.52,10.0,North,24.2,29.9,N/A,,Overcast,350,2014-01-05 18:53:00
1:53 PM,8.1,-9.9,44,30.52,10.0,NNW,21.9,34.5,N/A,,Mostly Cloudy,330,2014-01-05 19:53:00
2:53 PM,7.0,-9.0,48,30.55,10.0,NNW,17.3,26.5,N/A,,Overcast,330,2014-01-05 20:53:00
3:53 PM,5.0,-9.9,50,30.58,7.0,NNW,26.5,36.8,0.00,Snow,Light Snow,330,2014-01-05 21:53:00
4:44 PM,1.0,-9.9,60,30.47,2.5,NNW,27.6,35.7,0.00,Snow,Light Snow,330,2014-01-05 22:44:00
4:53 PM,-0.0,-13.0,54,30.64,6.0,NNW,27.6,36.8,0.00,Snow,Light Snow,340,2014-01-05 22:53:00
5:10 PM,-0.9,-18.9,42,30.47,10.0,NNW,26.5,33.4,0.00,,Scattered Clouds,330,2014-01-05 23:10:00
5:53 PM,-4.0,-22.0,42,30.67,10.0,NW,21.9,34.5,0.00,,Clear,320,2014-01-05 23:53:00
6:53 PM,-6.0,-22.0,46,30.68,10.0,NNW,15.0,-,N/A,,Clear,330,2014-01-06 00:53:00
7:53 PM,-7.1,-22.0,48,30.68,10.0,NW,15.0,23.0,N/A,,Clear,320,2014-01-06 01:53:00
8:53 PM,-7.1,-20.0,53,30.68,10.0,NW,12.7,-,N/A,,Clear,310,2014-01-06 02:53:00
9:53 PM,-8.0,-20.0,56,30.66,10.0,NW,16.1,-,N/A,,Clear,320,2014-01-06 03:53:00
10:53 PM,-9.0,-23.1,50,30.66,10.0,NW,23.0,32.2,N/A,,Clear,310,2014-01-06 04:53:00
11:53 PM,-9.0,-23.1,50,30.64,10.0,NW,17.3,26.5,N/A,,Clear,320,2014-01-06 05:53:00